Location: Berville
(49.1893°N, 2.0748°E)
Time: 18:17:39
(UTC+00:00)

Daily predictions for brighter satellites

Satellite Brightness Start Highest point End
(mag) Time Altitude Azimuth Time Altitude Azimuth Time Altitude Azimuth
Cosmos 1980 Rocket 4.0 17:26:28 10° WSW 17:31:13 27° NW 17:36:02 10° NNE
COSMOS 2428 4.1 17:28:49 10° SE 17:32:37 19° E 17:36:26 10° ENE
Lacrosse 5 2.1 17:28:05 10° WSW 17:33:11 73° NNW 17:38:20 10° NE
Cosmos 1633 2.7 17:32:38 10° SSE 17:35:49 42° E 17:39:01 10° NNE
SL-4 R/B 1.6 17:34:54 10° WNW 17:38:22 81° NNE 17:42:03 10° ESE
Cosmos 676 Rocket 4.1 17:34:18 10° SSW 17:39:35 86° WNW 17:44:52 10° NNE
Cosmos 1244 Rocket 4.5 17:38:20 10° N 17:44:42 76° E 17:50:56 10° SSE
ADEOS 4.0 17:40:15 10° S 17:45:26 69° WSW 17:50:40 10° NNW
Lacrosse 4 Rocket 3.7 17:49:55 10° NNE 17:50:33 10° NNE 17:51:11 10° NNE
CZ-4 R/B 4.4 17:47:05 10° SSE 17:51:08 64° ENE 17:55:15 10° N
Cosmos 1461 3.6 17:48:10 10° SW 17:52:25 57° NW 17:56:55 10° NNE
Okean O Rocket 2.8 17:50:39 10° ESE 17:54:06 23° ENE 17:57:35 10° N
Cosmos 2322 4.3 17:49:05 10° S 17:54:14 35° ESE 17:59:23 10° NE
Cosmos 1825 2.2 17:51:31 10° SSW 17:55:13 81° WNW 17:58:56 10° N
SKYMED 2 3.6 17:51:37 10° NNE 17:55:56 60° E 18:00:13 10° S
CZ-4 R/B 2.5 17:53:40 10° ESE 17:56:54 23° ENE 18:00:05 10° NNE
Radarsat Rocket 4.5 17:50:53 10° SSE 17:57:07 77° WSW 18:04:14 10° NNW
Cosmos 1745 Rocket 4.1 17:51:29 10° N 17:57:33 50° ENE 18:03:29 10° SSE
YAOGAN 1 3.0 17:54:53 10° SE 17:58:52 38° ENE 18:02:54 10° N
RESURS DK-1 3.9 17:56:16 10° NW 18:00:08 40° WSW 18:03:59 10° S
DELTA 2 DEB (DPAF) 4.4 17:55:59 10° N 18:00:23 74° WNW 18:04:46 10° SSW
Cosmos 2058 Rocket 3.0 17:58:29 10° N 18:02:55 75° E 18:07:21 10° SSE
Cosmos 1892 4.1 17:59:28 10° SSW 18:03:00 41° WNW 18:06:36 10° N
Okean 1-7 Rocket 4.4 17:59:29 10° SSE 18:03:19 29° E 18:07:12 10° NNE
IRIDIUM 106 4.3 17:59:07 10° N 18:04:20 66° E 18:09:31 10° SSE
Cosmos 1844 Rocket 4.0 17:59:33 10° NW 18:04:48 43° WSW 18:10:01 10° S
Okean-O 4.5 18:05:35 13° NE 18:05:35 13° NE 18:07:23 10° NNE
Gblst 52 Del rocket 4.2 18:02:33 10° W 18:08:14 72° N 18:12:32 17° ENE
PAYLOAD B 4.2 18:03:53 10° SSE 18:09:20 65° ENE 18:14:47 10° N
Cosmos-2242 3.9 18:07:23 10° NNE 18:10:58 26° ENE 18:14:33 10° SE
Cosmos 1340 2.7 18:07:41 10° NNW 18:11:23 81° WSW 18:15:02 10° S
Cosmos 44 Rocket 3.2 18:09:11 10° SSW 18:13:52 75° SE 18:18:21 12° NE
Cosmos 1709 Rocket 4.2 18:09:26 10° N 18:15:18 44° ENE 18:21:05 10° SE
Cosmos 1869 3.6 18:11:24 10° NNW 18:15:19 69° W 18:19:15 10° S
USA 215 3.5 18:09:41 10° SE 18:16:13 72° SW 18:22:47 10° WNW
USA 281 4.5 18:13:54 10° NNE 18:19:53 39° NW 18:25:52 10° WSW
PSLV R/B 3.6 18:17:43 10° SSE 18:21:23 68° ENE 18:25:10 10° N
Cosmos 1553 Rocket 4.0 18:16:05 10° S 18:22:13 89° W 18:28:28 10° N
Cosmos 1417 Rocket 4.4 18:19:57 10° S 18:26:09 74° E 18:32:19 10° NNE
CZ-4B R/B 3.1 18:24:41 10° SSE 18:30:02 68° ENE 18:35:32 10° N
Cosmos 2219 Rocket 2.1 18:26:41 10° SSW 18:32:16 80° ESE 18:37:54 10° NNE
ATLAS 5 CENTAUR R/B 3.6 18:29:59 10° NNW 18:33:07 17° NNE 18:34:47 15° NE
Cosmos 2360 Rocket 3.0 18:30:16 10° SW 18:35:46 51° NW 18:41:19 10° NNE
BlueWalker 3 1.9 18:31:55 10° WNW 18:35:48 86° NNE 18:37:32 32° ESE
Cosmos 1602 Rocket 3.8 18:33:37 10° SSE 18:37:41 42° E 18:41:46 10° NNE
Cosmos 1814 Rocket 4.1 18:33:48 10° NNW 18:39:12 86° WSW 18:44:33 10° SSE
Cosmos 1606 2.6 18:36:24 10° N 18:40:15 88° W 18:44:04 10° S
COSMO-SKYMED 1 3.6 18:39:42 10° N 18:43:53 47° WNW 18:48:01 10° SW
Lacrosse 5 rocket 4.0 18:42:35 10° W 18:44:28 14° SW 18:46:23 10° SSW
SJ-6B 3.4 18:44:58 36° ENE 18:44:58 36° ENE 18:48:34 10° N
ATLAS CENTAUR R/B 4.0 18:44:11 10° NW 18:46:00 12° NNW 18:47:46 10° N
Cosmos 2237 Rocket 3.0 18:42:29 10° SSE 18:46:55 28° ESE 18:46:55 28° ESE
USA 186 4.3 18:51:09 12° N 18:51:09 12° N 18:51:28 10° N
IGS 5A 3.5 18:46:58 28° SE 18:48:52 51° ENE 18:52:53 10° N
MOS 1-B 4.4 18:43:06 10° SSE 18:48:54 84° WSW 18:54:47 10° NNW
Cosmos 2278 Rocket 2.2 18:44:41 10° NNW 18:50:20 63° ENE 18:53:55 23° SE
Cosmos 2322 Rocket 3.8 18:47:00 10° WSW 18:51:56 31° NW 18:56:55 10° NNE
Cosmos 1758 Rocket 3.6 18:48:18 10° S 18:52:31 51° E 18:56:47 10° NNE
Cosmos 1812 Rocket 3.4 18:48:04 10° N 18:52:33 69° E 18:56:58 10° SSE
NOSS 0 Rocket 4.2 18:47:33 10° S 18:53:24 44° ESE 18:56:15 27° ENE
Cosmos 1356 Rocket 3.4 18:50:14 10° S 18:53:49 48° ESE 18:53:49 48° ESE
Cosmos 1980 4.2 18:53:08 10° S 18:58:04 35° ESE 18:58:04 35° ESE
BREEZE-M DEB (TANK) 3.8 18:55:35 10° W 18:59:16 53° S 19:04:17 23° ESE
S3M 4.2 18:53:56 10° SSW 19:00:20 79° W 19:06:44 10° N
CSL-04 Debris 4.2 18:58:39 25° SE 19:01:39 55° ENE 19:06:55 10° N
Cosmos 2333 Rocket 3.1 18:56:18 10° SW 19:01:47 49° NW 19:07:20 10° NNE
Cosmos 2369 Rocket 3.9 18:58:22 10° N 19:01:37 16° NNE 19:01:37 16° NNE
CSL-04 Rocket 3.8 19:01:24 35° ESE 19:03:21 51° ENE 19:08:36 10° N
Cosmos 1943 Rocket 2.8 19:01:27 10° NNW 19:06:42 36° NE 19:06:56 36° NE
Cosmos 1626 Rocket 3.9 19:02:30 10° SSW 19:06:47 64° WNW 19:11:08 10° N
MINOTAUR 4 R/B 4.2 19:05:38 27° N 19:07:20 66° WNW 19:10:43 10° SSW
SL-16 R/B 4.4 19:06:38 10° W 19:10:45 20° NW 19:14:53 10° N
Iridium 2 4.3 19:08:47 10° NNW 19:12:20 53° W 19:15:52 10° SSW
Resurs 01 Rocket 3.7 19:17:08 15° NNE 19:17:08 15° NNE 19:18:05 10° N
COSMOS 2428 2.7 19:10:30 10° SSW 19:16:11 80° WNW 19:20:22 19° NNE
Cosmos 968 Rocket 3.5 19:10:58 10° SSW 19:16:11 82° WNW 19:20:14 18° NNE
Lacrosse 5 2.9 19:12:04 10° WNW 19:16:48 36° N 19:18:14 30° NNE
SL-4 R/B 3.2 19:14:18 10° W 19:17:27 29° SW 19:18:04 27° SSW
USA 81 4.4 19:12:48 10° SSW 19:18:02 66° W 19:23:19 10° N
Cosmos 2208 Rocket 4.0 19:13:14 10° NNW 19:18:27 82° WSW 19:21:18 27° SSE
Meteor 2-2 Rocket 4.1 19:20:49 10° NNW 19:26:32 88° E 19:30:32 21° SSE
Okean O Rocket 2.6 19:25:55 10° S 19:30:10 47° W 19:34:28 10° NNW
Lacrosse 4 Rocket 3.1 19:26:26 10° NNW 19:28:37 25° N 19:28:37 25° N
Cosmos 2315 Rocket 4.1 19:24:18 10° SSW 19:30:39 76° W 19:37:05 10° N
Cosmos 836 Rocket 4.3 19:25:34 10° NNW 19:30:51 76° ENE 19:31:03 75° E
CZ-4 R/B 2.8 19:27:47 10° SSW 19:31:36 38° W 19:35:23 10° NNW
Okean-O 3.8 19:43:07 34° N 19:43:07 34° N 19:45:40 10° NNW
Cosmos 2058 3.9 19:40:50 10° SSW 19:43:57 43° WSW 19:43:57 43° WSW
Gblst 52 Del rocket 4.3 19:54:39 10° WNW 19:59:29 68° NW 19:59:29 68° NW
Cosmos 2219 Rocket 4.2 20:12:26 10° W 20:16:54 24° NW 20:20:24 14° N
ATLAS 5 CENTAUR R/B 3.6 20:13:55 10° NNW 20:16:09 26° NNW 20:16:09 26° NNW
Cosmos 2074 Rocket 4.3 20:14:41 10° NNW 20:20:55 64° W 20:21:08 64° WSW
Cosmos 2184 Rocket 4.3 20:17:20 10° NNW 20:23:21 63° W 20:23:21 63° W
Cosmos 2237 Rocket 3.4 20:25:21 10° SW 20:28:51 36° WSW 20:28:51 36° WSW
Cosmos 2278 Rocket 4.1 20:29:29 10° NW 20:33:58 25° WSW 20:35:51 21° SW
Cosmos 2369 Rocket 4.1 20:41:31 10° NNW 20:43:25 22° NNW 20:43:25 22° NNW
Cosmos 1943 Rocket 3.7 20:45:11 10° NW 20:48:29 32° WNW 20:48:29 32° WNW
Lacrosse 5 4.3 20:55:56 10° NW 20:57:26 18° NW 20:57:26 18° NW
